User: anonymous
Location: Caltech
(34.1382°N, 118.1253°W)
Time: 07:32:07
(UTC-07:00)
Language:

PAYLOAD A - Orbit

View from above orbital plane
View from above orbital plane
View from above satellite
View from above satellite

Ground track
Ground track

The orbit data is extracted from the following two-line orbital elements,

1 27840U 03031A   14108.46917701  .00000103  00000-0  45346-4 0  5184
2 27840 098.2415 139.3922 0098206 002.8344 123.6489 14.38694725567120
Epoch (UTC): 18 April 2014 11:15:36
Eccentricity: 0.0098206
inclination: 98.2415°
perigee height: 692 km
apogee height: 833 km
right ascension of ascending node: 139.3922°
argument of perigee: 2.8344°
revolutions per day: 14.38694725
mean anomaly at epoch: 123.6489°
orbit number at epoch: 56712

The dashed part of the orbit path shows where the satellite is in the earth's shadow,  

DLR